Regional Weather Roundup
Issued by NWS Albany, NY

Home | Current Version | Previous Version | Text Only | Print | Product List | Glossary On
Versions: 1 2 3 4 5 6 7 8 9 10 11 12 13 14 15 16 17 18 19 20 21 22 23 24 25 26 27 28 29 30 31 32 33 34 35 36 37 38 39 40 41 42 43 44 45 46 47 48 49 50
411
ASUS41 KALY 070210
RWRALY

NEW YORK STATE HOURLY WEATHER ROUNDUP
NATIONAL WEATHER SERVICE ALBANY NY
900 PM EST SAT FEB 06 2016

NOTE: "FAIR" INDICATES FEW OR NO CLOUDS BELOW 12,000 FEET WITH NO
SIGNIFICANT WEATHER AND/OR NO OBSTRUCTIONS TO VISIBILITY.

NYZ032-033-038>043-046>054-057>066-NYZ062>081-070300-
EAST


CITY           SKY/WX    TMP DP  RH WIND       PRES   REMARKS
ALBANY         MOCLDY    37  18  46 S9        30.20S WCI  30
GLENS FALLS    PTCLDY    30  21  69 SW5       30.18S WCI  25
POUGHKEEPSIE   CLEAR     32  19  58 SE5       30.25S WCI  27
NEWBURGH       CLEAR     34  21  60 W8        30.24F WCI  27
MONTGOMERY     CLEAR     29  20  69 S5        30.23F WCI  24
WHITE PLAINS   CLEAR     34  19  54 CALM      30.26S
ISLIP          PTCLDY    32  25  75 SW6       30.28S WCI  26
NEW YORK CITY  CLOUDY    39  21  48 SW9       30.29S WCI  33
CENTRAL PARK   CLOUDY    38  20  48 VRB3      30.30F
$$

NYZ005>009-017-018-044>046-055-056-070300-
CENTRAL


CITY           SKY/WX    TMP DP  RH WIND       PRES   REMARKS
FULTON         CLOUDY    30  23  75 S3        30.17S
SYRACUSE       MOCLDY    28  22  78 CALM      30.17F
ROME           MOCLDY    25  21  85 E5        30.19F WCI  19
ELMIRA         CLEAR     25  20  81 CALM      30.17S
BINGHAMTON     CLEAR     31  18  58 S5        30.14S WCI  26
MONTICELLO     CLEAR     28  19  69 SW5       30.19F WCI  23
$$

NYZ026>034-041>043-070300-
NORTH


CITY           SKY/WX    TMP DP  RH WIND       PRES   REMARKS
WATERTOWN      CLOUDY    36  23  59 SW13      30.14S WCI  27
FORT DRUM      NOT AVBL
MASSENA        CLOUDY    34  25  69 SW16G22   30.10S WCI  24
SARANAC LAKE   CLOUDY    29  22  75 SW12G21   30.03F WCI  19
PLATTSBURGH    CLOUDY    36  22  56 S6        30.11S WCI  31
$$

NYZ001>004-010>016-019>021-070300-
WEST


CITY           SKY/WX    TMP DP  RH WIND       PRES   REMARKS
NIAGARA FALLS  CLOUDY    33  23  66 SW12      30.16S WCI  24
BUFFALO        CLOUDY    33  25  72 SW10      30.16F WCI  25
DUNKIRK        CLOUDY    29  22  75 S8        30.19S WCI  21
JAMESTOWN      CLEAR     28  18  64 S7        30.13F WCI  21
WELLSVILLE     CLEAR     31  15  52 SW5       30.13F WCI  26
ROCHESTER      MOCLDY    30  23  75 W8        30.17S WCI  22
PENN YAN       CLEAR     28  18  66 SW6       30.16F WCI  22
$$

             KEY
       WCI = WIND CHILL INDEX
       VSB = VISIBILITY
       HX  = HEAT INDEX
$$




USA.gov is the U.S. government's official web portal to all federal, state and local government web resources and services.